QPF
0.06 0.08 0.10 0.10 0.10 0.09 0.06 0.06 0.06 0.06 0.06 0.06 0.07 0.07 0.06 0.05 0.04 0.03 0.03 0.02 0.02 0.03 0.03 0.03 0.03 0.03 0.03 0.02 0.02 0.01 0.01 0.01 0.01 0.00 0.00 0.00 0.00 0.00 0.00 0.01 0.00 0.00 0.00
0.06 0.07 0.10 0.11 0.11 0.10 0.09 0.06 0.05 0.05 0.06 0.06 0.06 0.06 0.05 0.05 0.05 0.05 0.04 0.03 0.02 0.03 0.03 0.04 0.04 0.04 0.04 0.04 0.02 0.01 0.01 0.01 0.01 0.00 0.00 0.00 0.00 0.00 0.00 0.00 0.00 0.00 0.00
0.06 0.06 0.09 0.12 0.12 0.11 0.12 0.10 0.08 0.06 0.06 0.06 0.07 0.06 0.05 0.06 0.05 0.05 0.05 0.04 0.03 0.03 0.03 0.04 0.04 0.05 0.05 0.05 0.04 0.02 0.02 0.01 0.01 0.00 0.00 0.00 0.00 0.00 0.00 0.00 0.00 0.00 0.00
0.05 0.05 0.05 0.09 0.12 0.13 0.13 0.13 0.11 0.08 0.07 0.07 0.07 0.08 0.07 0.06 0.05 0.05 0.05 0.05 0.05 0.04 0.04 0.04 0.04 0.05 0.07 0.07 0.06 0.04 0.03 0.02 0.01 0.01 0.00 0.00 0.00 0.00 0.00 0.00 0.00 0.00 0.00
0.07 0.05 0.05 0.08 0.11 0.15 0.15 0.14 0.12 0.11 0.09 0.08 0.08 0.09 0.09 0.07 0.05 0.05 0.05 0.05 0.05 0.05 0.04 0.04 0.03 0.04 0.06 0.08 0.08 0.06 0.05 0.03 0.02 0.01 0.00 0.00 0.01 0.00 0.00 0.00 0.00 0.00 0.00
0.08 0.05 0.04 0.07 0.11 0.15 0.17 0.16 0.16 0.12 0.09 0.09 0.09 0.10 0.10 0.08 0.07 0.06 0.05 0.05 0.04 0.04 0.04 0.03 0.03 0.03 0.04 0.06 0.07 0.06 0.06 0.05 0.03 0.01 0.01 0.00 0.01 0.01 0.00 0.00 0.00 0.00 0.00
0.10 0.05 0.04 0.04 0.08 0.14 0.18 0.18 0.18 0.19 0.15 0.11 0.11 0.12 0.12 0.10 0.08 0.07 0.06 0.05 0.05 0.04 0.04 0.04 0.03 0.03 0.03 0.05 0.05 0.05 0.06 0.05 0.04 0.02 0.01 0.01 0.01 0.01 0.01 0.00 0.00 0.00 0.01
0.11 0.07 0.05 0.04 0.05 0.09 0.15 0.19 0.20 0.19 0.18 0.16 0.13 0.12 0.13 0.13 0.10 0.07 0.05 0.05 0.05 0.05 0.04 0.04 0.03 0.03 0.03 0.03 0.03 0.04 0.05 0.06 0.05 0.03 0.02 0.01 0.01 0.01 0.01 0.01 0.01 0.00 0.01
0.10 0.07 0.06 0.05 0.05 0.07 0.10 0.15 0.19 0.20 0.18 0.16 0.13 0.10 0.10 0.09 0.08 0.07 0.06 0.05 0.05 0.05 0.04 0.04 0.03 0.03 0.03 0.03 0.03 0.03 0.04 0.05 0.06 0.05 0.04 0.03 0.02 0.02 0.02 0.02 0.01 0.01 0.01
0.09 0.07 0.05 0.04 0.05 0.08 0.08 0.09 0.13 0.18 0.19 0.17 0.14 0.10 0.07 0.06 0.06 0.06 0.06 0.06 0.05 0.05 0.05 0.04 0.03 0.03 0.03 0.03 0.03 0.03 0.03 0.04 0.06 0.08 0.07 0.04 0.03 0.03 0.03 0.03 0.02 0.02 0.01
0.07 0.07 0.05 0.04 0.04 0.06 0.07 0.07 0.10 0.14 0.17 0.18 0.15 0.11 0.08 0.07 0.06 0.06 0.06 0.06 0.07 0.06 0.05 0.05 0.04 0.03 0.03 0.03 0.03 0.03 0.03 0.03 0.06 0.09 0.09 0.07 0.05 0.04 0.04 0.04 0.02 0.01 0.01
0.06 0.05 0.04 0.03 0.03 0.04 0.07 0.07 0.08 0.11 0.13 0.14 0.13 0.12 0.10 0.08 0.06 0.05 0.05 0.05 0.06 0.06 0.06 0.06 0.05 0.04 0.04 0.04 0.04 0.04 0.04 0.04 0.05 0.07 0.09 0.09 0.06 0.04 0.04 0.03 0.01 0.01 0.01
0.05 0.06 0.06 0.04 0.03 0.04 0.05 0.07 0.08 0.10 0.12 0.13 0.12 0.11 0.09 0.08 0.06 0.07 0.07 0.06 0.07 0.08 0.08 0.07 0.06 0.05 0.05 0.06 0.06 0.06 0.05 0.04 0.05 0.06 0.07 0.08 0.07 0.04 0.02 0.02 0.01 0.01 0.01
0.04 0.04 0.07 0.07 0.05 0.04 0.04 0.06 0.08 0.09 0.11 0.12 0.12 0.11 0.10 0.08 0.07 0.08 0.09 0.09 0.10 0.10 0.10 0.10 0.08 0.06 0.05 0.05 0.06 0.08 0.07 0.07 0.07 0.07 0.06 0.05 0.05 0.05 0.03 0.01 0.01 0.01 0.01
0.05 0.04 0.05 0.07 0.08 0.07 0.06 0.06 0.07 0.08 0.10 0.11 0.12 0.12 0.12 0.10 0.07 0.06 0.08 0.09 0.10 0.11 0.09 0.08 0.08 0.08 0.07 0.06 0.06 0.07 0.06 0.07 0.08 0.07 0.07 0.05 0.04 0.04 0.03 0.02 0.01 0.01 0.01
0.06 0.05 0.05 0.08 0.08 0.07 0.08 0.08 0.08 0.08 0.09 0.09 0.10 0.12 0.13 0.12 0.10 0.08 0.08 0.08 0.09 0.10 0.10 0.08 0.07 0.08 0.08 0.07 0.09 0.08 0.07 0.09 0.08 0.07 0.07 0.06 0.05 0.04 0.04 0.03 0.02 0.01 0.01
0.08 0.07 0.06 0.09 0.10 0.08 0.08 0.09 0.10 0.09 0.09 0.09 0.10 0.11 0.12 0.11 0.10 0.08 0.07 0.08 0.08 0.09 0.10 0.09 0.10 0.10 0.11 0.09 0.10 0.09 0.08 0.09 0.10 0.09 0.09 0.08 0.06 0.05 0.05 0.04 0.03 0.02 0.02
0.09 0.09 0.08 0.09 0.12 0.11 0.08 0.08 0.08 0.08 0.08 0.09 0.09 0.11 0.12 0.11 0.10 0.08 0.08 0.07 0.07 0.07 0.08 0.09 0.11 0.13 0.13 0.11 0.10 0.10 0.10 0.09 0.08 0.09 0.08 0.08 0.07 0.06 0.06 0.06 0.04 0.03 0.02
0.09 0.11 0.10 0.09 0.11 0.12 0.10 0.08 0.08 0.08 0.07 0.08 0.08 0.09 0.10 0.11 0.09 0.07 0.07 0.08 0.07 0.07 0.07 0.07 0.08 0.10 0.13 0.14 0.12 0.11 0.11 0.11 0.09 0.09 0.08 0.08 0.07 0.06 0.06 0.06 0.05 0.03 0.02
0.10 0.11 0.10 0.10 0.10 0.11 0.12 0.11 0.09 0.09 0.08 0.08 0.08 0.08 0.09 0.10 0.09 0.07 0.07 0.07 0.07 0.07 0.07 0.07 0.07 0.08 0.11 0.13 0.13 0.11 0.11 0.11 0.10 0.09 0.10 0.10 0.08 0.07 0.06 0.06 0.04 0.03 0.02
0.10 0.11 0.10 0.10 0.10 0.10 0.12 0.13 0.11 0.09 0.09 0.09 0.08 0.08 0.09 0.11 0.11 0.09 0.09 0.08 0.08 0.09 0.09 0.09 0.08 0.08 0.09 0.12 0.12 0.10 0.09 0.09 0.08 0.08 0.10 0.11 0.10 0.08 0.06 0.05 0.04 0.03 0.02
0.11 0.10 0.11 0.10 0.10 0.10 0.11 0.12 0.12 0.10 0.11 0.11 0.11 0.10 0.11 0.12 0.11 0.11 0.10 0.09 0.09 0.09 0.10 0.10 0.08 0.07 0.07 0.07 0.08 0.08 0.09 0.09 0.09 0.08 0.07 0.09 0.08 0.08 0.06 0.04 0.03 0.03 0.02
0.10 0.10 0.11 0.11 0.10 0.10 0.10 0.11 0.11 0.11 0.12 0.12 0.13 0.12 0.12 0.11 0.10 0.10 0.11 0.10 0.09 0.08 0.09 0.09 0.08 0.06 0.06 0.06 0.07 0.08 0.08 0.07 0.07 0.06 0.05 0.07 0.07 0.06 0.04 0.03 0.03 0.03 0.03
0.09 0.09 0.09 0.09 0.10 0.10 0.10 0.10 0.12 0.14 0.15 0.14 0.14 0.11 0.10 0.10 0.10 0.10 0.09 0.08 0.07 0.07 0.07 0.07 0.06 0.05 0.05 0.06 0.07 0.07 0.08 0.08 0.07 0.05 0.04 0.05 0.05 0.05 0.04 0.03 0.04 0.04 0.03
0.08 0.09 0.09 0.08 0.08 0.09 0.10 0.11 0.13 0.17 0.18 0.16 0.13 0.10 0.09 0.09 0.10 0.09 0.08 0.08 0.08 0.07 0.07 0.06 0.05 0.05 0.05 0.06 0.08 0.08 0.08 0.09 0.09 0.08 0.05 0.04 0.04 0.04 0.04 0.04 0.04 0.05 0.04
0.07 0.08 0.08 0.07 0.07 0.08 0.09 0.11 0.14 0.19 0.18 0.16 0.14 0.12 0.12 0.11 0.10 0.09 0.08 0.07 0.07 0.06 0.05 0.05 0.05 0.06 0.05 0.05 0.07 0.08 0.07 0.08 0.07 0.07 0.05 0.04 0.04 0.04 0.05 0.05 0.04 0.04 0.03
MSLP
1008.79 1008.51 1008.20 1007.87 1007.55 1007.22 1006.90 1006.59 1006.30 1006.01 1005.76 1005.54 1005.39 1005.33 1005.39 1005.57 1005.87 1006.28 1006.76 1007.27 1007.77 1008.22 1008.60 1008.92 1009.21 1009.49 1009.80 1010.18 1010.63 1011.17 1011.75 1012.36 1012.94 1013.48 1013.94 1014.33 1014.64 1014.91 1015.14 1015.35 1015.54 1015.72 1015.86
1008.27 1008.01 1007.73 1007.44 1007.16 1006.88 1006.60 1006.32 1006.04 1005.76 1005.49 1005.25 1005.07 1004.98 1005.00 1005.16 1005.45 1005.86 1006.34 1006.86 1007.36 1007.82 1008.20 1008.52 1008.80 1009.07 1009.37 1009.75 1010.22 1010.77 1011.40 1012.05 1012.69 1013.28 1013.79 1014.21 1014.55 1014.80 1015.01 1015.19 1015.34 1015.48 1015.60
1007.62 1007.40 1007.18 1006.95 1006.72 1006.49 1006.27 1006.03 1005.78 1005.52 1005.25 1005.01 1004.81 1004.68 1004.68 1004.80 1005.05 1005.43 1005.90 1006.40 1006.90 1007.35 1007.75 1008.08 1008.36 1008.65 1008.97 1009.36 1009.85 1010.43 1011.08 1011.76 1012.44 1013.06 1013.60 1014.04 1014.38 1014.63 1014.82 1014.97 1015.09 1015.20 1015.29
1006.85 1006.70 1006.54 1006.39 1006.23 1006.07 1005.90 1005.72 1005.50 1005.26 1005.01 1004.76 1004.54 1004.39 1004.34 1004.42 1004.62 1004.96 1005.38 1005.86 1006.34 1006.80 1007.21 1007.57 1007.89 1008.21 1008.57 1008.99 1009.51 1010.11 1010.77 1011.47 1012.16 1012.79 1013.34 1013.78 1014.12 1014.37 1014.54 1014.68 1014.78 1014.88 1014.96
1006.00 1005.92 1005.84 1005.76 1005.68 1005.59 1005.48 1005.34 1005.17 1004.95 1004.71 1004.46 1004.22 1004.05 1003.95 1003.97 1004.12 1004.39 1004.77 1005.21 1005.67 1006.14 1006.58 1006.98 1007.37 1007.75 1008.17 1008.64 1009.18 1009.79 1010.45 1011.14 1011.81 1012.43 1012.97 1013.41 1013.75 1014.00 1014.18 1014.32 1014.43 1014.53 1014.62
1005.09 1005.06 1005.06 1005.05 1005.04 1005.02 1004.96 1004.87 1004.73 1004.54 1004.31 1004.06 1003.81 1003.61 1003.47 1003.44 1003.52 1003.73 1004.05 1004.45 1004.91 1005.39 1005.87 1006.34 1006.80 1007.26 1007.74 1008.26 1008.83 1009.44 1010.09 1010.75 1011.39 1011.98 1012.49 1012.93 1013.27 1013.54 1013.74 1013.91 1014.05 1014.17 1014.29
1004.09 1004.11 1004.17 1004.23 1004.28 1004.31 1004.31 1004.26 1004.15 1003.99 1003.78 1003.54 1003.29 1003.06 1002.90 1002.82 1002.84 1003.00 1003.26 1003.63 1004.08 1004.58 1005.11 1005.65 1006.20 1006.74 1007.29 1007.86 1008.45 1009.06 1009.67 1010.29 1010.88 1011.43 1011.92 1012.34 1012.70 1013.00 1013.26 1013.47 1013.66 1013.84 1013.99
1002.98 1003.03 1003.13 1003.25 1003.36 1003.45 1003.50 1003.50 1003.43 1003.31 1003.12 1002.90 1002.66 1002.43 1002.25 1002.13 1002.12 1002.22 1002.45 1002.80 1003.25 1003.77 1004.35 1004.96 1005.59 1006.21 1006.82 1007.43 1008.03 1008.62 1009.19 1009.76 1010.29 1010.80 1011.27 1011.70 1012.09 1012.45 1012.76 1013.05 1013.31 1013.54 1013.75
1001.71 1001.78 1001.91 1002.08 1002.25 1002.41 1002.52 1002.58 1002.57 1002.50 1002.36 1002.17 1001.96 1001.74 1001.56 1001.43 1001.39 1001.47 1001.68 1002.01 1002.46 1003.01 1003.64 1004.31 1005.00 1005.68 1006.34 1006.98 1007.57 1008.14 1008.68 1009.19 1009.68 1010.15 1010.62 1011.06 1011.50 1011.91 1012.31 1012.68 1013.02 1013.31 1013.56
1000.25 1000.33 1000.50 1000.72 1000.97 1001.20 1001.40 1001.53 1001.60 1001.60 1001.53 1001.40 1001.23 1001.04 1000.88 1000.76 1000.72 1000.79 1000.98 1001.31 1001.77 1002.34 1003.00 1003.71 1004.45 1005.18 1005.87 1006.52 1007.11 1007.66 1008.16 1008.63 1009.09 1009.55 1010.01 1010.49 1010.98 1011.46 1011.94 1012.39 1012.80 1013.15 1013.44
998.60 998.70 998.91 999.21 999.54 999.88 1000.18 1000.42 1000.59 1000.67 1000.68 1000.61 1000.50 1000.36 1000.23 1000.14 1000.11 1000.19 1000.38 1000.72 1001.18 1001.77 1002.45 1003.19 1003.96 1004.72 1005.43 1006.09 1006.68 1007.21 1007.69 1008.14 1008.59 1009.04 1009.53 1010.04 1010.58 1011.13 1011.67 1012.18 1012.65 1013.04 1013.35
996.82 996.94 997.23 997.62 998.06 998.52 998.94 999.30 999.58 999.76 999.85 999.86 999.81 999.72 999.63 999.57 999.56 999.66 999.87 1000.21 1000.69 1001.29 1001.99 1002.75 1003.54 1004.31 1005.04 1005.71 1006.31 1006.84 1007.32 1007.77 1008.22 1008.69 1009.20 1009.75 1010.33 1010.92 1011.51 1012.07 1012.56 1012.96 1013.28
994.99 995.17 995.55 996.05 996.63 997.21 997.77 998.25 998.63 998.91 999.07 999.14 999.15 999.11 999.05 999.02 999.05 999.17 999.40 999.76 1000.26 1000.87 1001.58 1002.36 1003.17 1003.96 1004.72 1005.41 1006.03 1006.58 1007.08 1007.55 1008.03 1008.52 1009.06 1009.63 1010.23 1010.85 1011.45 1012.01 1012.51 1012.90 1013.20
993.26 993.52 994.00 994.63 995.34 996.06 996.73 997.32 997.79 998.14 998.36 998.47 998.51 998.50 998.48 998.48 998.53 998.68 998.95 999.34 999.85 1000.49 1001.22 1002.02 1002.85 1003.68 1004.46 1005.19 1005.85 1006.45 1006.99 1007.51 1008.02 1008.54 1009.09 1009.68 1010.28 1010.88 1011.47 1012.00 1012.46 1012.83 1013.10
991.75 992.11 992.71 993.46 994.28 995.11 995.88 996.54 997.07 997.45 997.69 997.82 997.87 997.87 997.87 997.90 997.99 998.17 998.48 998.90 999.46 1000.12 1000.89 1001.72 1002.58 1003.45 1004.28 1005.06 1005.78 1006.44 1007.05 1007.62 1008.17 1008.72 1009.28 1009.85 1010.43 1010.99 1011.52 1012.00 1012.41 1012.73 1012.95
990.57 991.04 991.74 992.59 993.50 994.40 995.22 995.91 996.45 996.82 997.05 997.17 997.21 997.21 997.22 997.27 997.40 997.63 997.98 998.46 999.06 999.77 1000.58 1001.45 1002.36 1003.28 1004.17 1005.03 1005.82 1006.55 1007.23 1007.86 1008.45 1009.02 1009.57 1010.11 1010.63 1011.12 1011.58 1011.98 1012.32 1012.58 1012.76
989.80 990.37 991.14 992.05 992.99 993.90 994.71 995.37 995.87 996.21 996.40 996.48 996.50 996.50 996.52 996.60 996.78 997.07 997.48 998.02 998.68 999.45 1000.31 1001.23 1002.19 1003.17 1004.13 1005.05 1005.93 1006.74 1007.48 1008.17 1008.80 1009.37 1009.90 1010.39 1010.83 1011.24 1011.60 1011.92 1012.17 1012.38 1012.53
989.41 990.04 990.84 991.75 992.66 993.53 994.27 994.87 995.29 995.56 995.70 995.74 995.75 995.76 995.81 995.94 996.18 996.54 997.02 997.63 998.35 999.18 1000.09 1001.07 1002.08 1003.11 1004.13 1005.12 1006.07 1006.95 1007.76 1008.49 1009.13 1009.70 1010.20 1010.63 1010.99 1011.31 1011.57 1011.80 1011.99 1012.14 1012.26
989.32 989.97 990.75 991.59 992.42 993.18 993.82 994.31 994.65 994.85 994.94 994.97 994.98 995.03 995.13 995.34 995.65 996.09 996.66 997.34 998.12 999.00 999.96 1000.97 1002.02 1003.10 1004.16 1005.21 1006.21 1007.14 1007.99 1008.75 1009.41 1009.97 1010.43 1010.80 1011.09 1011.31 1011.49 1011.64 1011.76 1011.88 1011.98
989.44 990.04 990.74 991.47 992.17 992.79 993.30 993.68 993.93 994.08 994.15 994.20 994.26 994.37 994.56 994.86 995.27 995.80 996.44 997.19 998.03 998.95 999.93 1000.96 1002.03 1003.13 1004.22 1005.29 1006.32 1007.29 1008.17 1008.94 1009.60 1010.14 1010.57 1010.88 1011.11 1011.27 1011.37 1011.46 1011.53 1011.62 1011.71
989.64 990.16 990.72 991.29 991.83 992.30 992.67 992.95 993.15 993.28 993.38 993.49 993.64 993.85 994.16 994.57 995.09 995.71 996.43 997.23 998.10 999.04 1000.03 1001.06 1002.13 1003.21 1004.30 1005.38 1006.41 1007.39 1008.27 1009.05 1009.71 1010.23 1010.63 1010.91 1011.09 1011.20 1011.26 1011.30 1011.34 1011.40 1011.48
989.85 990.24 990.64 991.04 991.41 991.73 992.00 992.21 992.39 992.56 992.73 992.95 993.22 993.58 994.02 994.55 995.18 995.88 996.66 997.49 998.38 999.31 1000.28 1001.28 1002.32 1003.37 1004.44 1005.49 1006.51 1007.47 1008.34 1009.11 1009.76 1010.27 1010.65 1010.91 1011.07 1011.15 1011.19 1011.21 1011.23 1011.27 1011.33
990.03 990.28 990.52 990.75 990.97 991.18 991.38 991.57 991.78 992.03 992.32 992.68 993.11 993.62 994.20 994.85 995.57 996.34 997.15 997.99 998.87 999.77 1000.70 1001.65 1002.64 1003.64 1004.66 1005.67 1006.65 1007.57 1008.43 1009.18 1009.81 1010.32 1010.69 1010.95 1011.11 1011.19 1011.22 1011.23 1011.24 1011.25 1011.29
990.23 990.33 990.43 990.53 990.65 990.79 990.96 991.19 991.48 991.84 992.28 992.80 993.39 994.04 994.75 995.51 996.29 997.10 997.91 998.74 999.58 1000.44 1001.31 1002.20 1003.12 1004.06 1005.02 1005.97 1006.89 1007.77 1008.59 1009.31 1009.93 1010.43 1010.81 1011.08 1011.25 1011.35 1011.39 1011.40 1011.39 1011.39 1011.39
990.52 990.52 990.51 990.53 990.59 990.71 990.92 991.21 991.61 992.11 992.70 993.37 994.10 994.88 995.69 996.51 997.33 998.14 998.94 999.73 1000.52 1001.32 1002.12 1002.95 1003.80 1004.67 1005.55 1006.43 1007.29 1008.12 1008.88 1009.57 1010.16 1010.65 1011.04 1011.32 1011.52 1011.64 1011.70 1011.71 1011.70 1011.66 1011.62
991.01 990.94 990.89 990.87 990.93 991.09 991.36 991.75 992.26 992.89 993.62 994.41 995.26 996.12 996.98 997.82 998.64 999.43 1000.19 1000.93 1001.66 1002.39 1003.13 1003.89 1004.68 1005.47 1006.28 1007.08 1007.87 1008.62 1009.32 1009.96 1010.52 1010.99 1011.37 1011.67 1011.89 1012.04 1012.12 1012.14 1012.12 1012.05 1011.94
Thickness
5666 5669 5671 5674 5677 5679 5680 5682 5684 5686 5687 5688 5689 5691 5692 5693 5694 5694 5694 5693 5693 5692 5691 5689 5687 5684 5682 5679 5675 5672 5670 5667 5665 5662 5659 5655 5652 5650 5647 5643 5640 5637 5634
5654 5656 5659 5661 5665 5667 5670 5672 5675 5677 5679 5680 5682 5684 5686 5687 5688 5688 5688 5687 5687 5687 5686 5684 5683 5681 5678 5675 5672 5669 5666 5663 5660 5657 5654 5651 5648 5645 5642 5638 5634 5631 5628
5641 5643 5645 5648 5652 5655 5658 5661 5663 5666 5669 5671 5673 5676 5678 5680 5681 5682 5681 5681 5680 5681 5680 5680 5678 5676 5674 5672 5669 5665 5662 5659 5656 5653 5650 5647 5643 5640 5637 5633 5629 5626 5622
5628 5630 5631 5634 5638 5641 5644 5647 5651 5654 5657 5660 5662 5665 5668 5670 5673 5674 5675 5674 5674 5674 5674 5674 5673 5672 5670 5668 5665 5662 5658 5655 5652 5648 5645 5642 5639 5635 5632 5628 5624 5620 5617
5614 5615 5618 5620 5623 5626 5630 5634 5637 5640 5644 5647 5651 5653 5656 5659 5663 5665 5666 5667 5667 5667 5667 5667 5667 5666 5665 5664 5661 5658 5655 5651 5647 5644 5640 5638 5634 5631 5627 5623 5619 5615 5611
5600 5601 5604 5607 5608 5611 5615 5619 5623 5626 5631 5634 5638 5640 5644 5647 5651 5654 5657 5658 5659 5660 5660 5660 5660 5660 5659 5658 5657 5654 5651 5647 5644 5640 5636 5633 5630 5626 5622 5618 5614 5609 5605
5586 5588 5591 5593 5595 5597 5601 5605 5608 5611 5615 5619 5621 5623 5629 5634 5638 5642 5646 5648 5650 5652 5652 5653 5654 5654 5653 5652 5651 5649 5646 5643 5640 5636 5632 5628 5625 5621 5617 5613 5609 5604 5600
5575 5576 5578 5580 5581 5583 5586 5589 5592 5595 5600 5604 5605 5606 5610 5616 5622 5630 5634 5637 5641 5643 5644 5646 5647 5647 5647 5646 5645 5643 5641 5639 5635 5632 5628 5624 5621 5617 5612 5608 5603 5599 5594
5563 5563 5565 5567 5568 5569 5572 5574 5577 5580 5584 5589 5592 5594 5596 5602 5606 5614 5620 5625 5629 5632 5635 5638 5640 5640 5639 5639 5639 5637 5635 5633 5630 5627 5624 5620 5616 5612 5608 5603 5598 5593 5588
5552 5552 5553 5555 5556 5558 5560 5561 5564 5567 5570 5575 5578 5583 5588 5593 5593 5598 5605 5611 5617 5621 5624 5628 5631 5632 5632 5632 5632 5632 5630 5627 5624 5622 5619 5615 5612 5607 5603 5598 5593 5588 5583
5541 5542 5543 5544 5545 5547 5548 5550 5552 5555 5558 5562 5566 5570 5574 5579 5584 5585 5590 5597 5603 5609 5613 5617 5621 5623 5624 5625 5625 5625 5624 5622 5619 5617 5613 5610 5607 5602 5598 5593 5588 5582 5576
5530 5532 5532 5534 5535 5536 5537 5539 5541 5544 5547 5550 5554 5558 5563 5568 5573 5575 5579 5584 5589 5597 5602 5607 5611 5614 5616 5617 5618 5618 5617 5615 5613 5611 5608 5604 5600 5596 5592 5587 5582 5576 5570
5519 5522 5522 5524 5525 5526 5527 5528 5530 5533 5536 5540 5544 5548 5553 5559 5564 5567 5569 5572 5575 5583 5589 5595 5601 5605 5607 5609 5611 5611 5610 5608 5606 5604 5601 5598 5594 5590 5586 5581 5576 5570 5564
5510 5512 5513 5513 5515 5516 5517 5518 5520 5524 5527 5530 5535 5539 5543 5549 5554 5558 5561 5561 5564 5569 5576 5584 5590 5595 5599 5601 5603 5603 5602 5601 5600 5597 5594 5591 5588 5583 5579 5574 5569 5563 5557
5501 5502 5503 5504 5505 5506 5508 5509 5511 5515 5518 5522 5526 5531 5535 5539 5545 5550 5553 5556 5557 5560 5568 5574 5579 5585 5590 5593 5594 5594 5595 5594 5592 5590 5587 5584 5581 5577 5572 5567 5561 5556 5550
5491 5491 5492 5493 5496 5498 5499 5500 5503 5506 5509 5514 5518 5522 5527 5531 5537 5541 5544 5548 5553 5556 5560 5566 5570 5577 5580 5583 5585 5586 5587 5587 5585 5582 5580 5577 5574 5570 5565 5559 5554 5548 5542
5481 5481 5482 5483 5486 5488 5491 5492 5495 5499 5502 5507 5511 5515 5520 5523 5528 5533 5537 5541 5545 5549 5552 5557 5561 5567 5570 5573 5575 5576 5578 5578 5577 5575 5573 5571 5567 5563 5558 5552 5547 5541 5535
5472 5471 5472 5473 5476 5480 5483 5485 5488 5492 5496 5500 5504 5508 5513 5517 5522 5527 5531 5535 5539 5543 5546 5550 5553 5558 5562 5565 5567 5568 5569 5570 5569 5568 5566 5563 5560 5556 5551 5546 5540 5534 5527
5463 5463 5463 5464 5467 5471 5475 5479 5482 5485 5490 5495 5499 5503 5508 5511 5516 5521 5526 5529 5534 5537 5540 5543 5547 5550 5553 5556 5557 5558 5559 5560 5561 5560 5558 5555 5552 5548 5543 5539 5532 5526 5520
5455 5455 5456 5457 5460 5464 5468 5473 5476 5479 5483 5489 5495 5499 5504 5508 5512 5517 5521 5525 5528 5530 5533 5536 5540 5542 5545 5547 5549 5550 5549 5550 5551 5550 5549 5546 5544 5540 5536 5531 5526 5520 5513
5449 5449 5449 5451 5454 5458 5462 5465 5469 5473 5477 5484 5490 5495 5500 5504 5509 5513 5518 5521 5524 5526 5528 5531 5534 5535 5537 5539 5542 5543 5542 5541 5540 5540 5539 5537 5536 5532 5528 5523 5518 5512 5505
5443 5443 5443 5446 5449 5453 5456 5459 5462 5467 5473 5480 5487 5492 5495 5499 5504 5508 5514 5518 5521 5523 5525 5527 5529 5533 5535 5537 5537 5537 5535 5533 5531 5531 5530 5527 5526 5523 5519 5515 5510 5504 5498
5438 5438 5438 5440 5444 5447 5451 5455 5458 5463 5470 5477 5483 5487 5492 5496 5500 5504 5507 5511 5516 5520 5524 5528 5529 5532 5533 5535 5533 5531 5531 5529 5527 5526 5521 5518 5516 5513 5510 5506 5501 5496 5490
5433 5434 5434 5437 5440 5443 5447 5451 5454 5459 5466 5474 5479 5485 5489 5493 5496 5499 5502 5505 5509 5514 5520 5523 5526 5529 5529 5529 5530 5529 5525 5519 5516 5515 5515 5511 5507 5504 5500 5497 5493 5487 5481
5430 5431 5432 5434 5436 5439 5443 5447 5451 5455 5462 5470 5476 5482 5486 5491 5494 5496 5498 5500 5504 5508 5511 5514 5517 5520 5521 5522 5522 5519 5515 5512 5508 5506 5506 5504 5499 5494 5490 5486 5483 5477 5472
5428 5430 5431 5432 5434 5438 5441 5444 5448 5452 5458 5466 5472 5477 5483 5489 5492 5494 5495 5498 5500 5502 5503 5504 5507 5509 5510 5512 5513 5514 5514 5510 5506 5500 5498 5496 5491 5486 5480 5476 5472 5467 5461